EHI
0 0 0 0 0 0 0 0 0 0 0 0 0 0 0 0 0 0 0 0 0 1 0 0 0 0 0 0 0 0 0 0 0 0 0 0 0 0 0 0 0 0 0
0 0 0 0 0 0 0 0 0 0 0 0 0 0 0 0 0 0 0 0 0 1 0 0 0 0 0 0 0 0 0 0 0 0 0 0 0 0 0 0 0 0 0
0 0 0 0 0 0 0 0 0 0 0 0 0 0 0 0 0 0 0 0 0 0 0 0 0 0 0 0 0 0 0 0 0 0 0 0 0 0 0 0 0 0 0
0 0 0 0 0 0 0 0 0 0 0 0 0 0 0 0 0 0 0 0 0 0 0 0 0 0 0 0 0 0 0 0 0 0 0 0 0 0 0 0 0 0 0
0 0 0 0 0 0 0 0 0 0 0 0 0 0 0 0 0 0 0 0 0 0 0 0 0 0 0 0 0 0 0 0 0 0 0 0 0 0 0 0 0 0 0
0 0 0 0 0 0 0 0 0 0 0 0 0 0 0 0 0 0 0 0 0 0 0 0 0 0 0 0 0 0 0 0 0 0 0 0 0 0 0 0 0 0 0
0 0 0 0 0 0 0 0 0 0 0 0 0 0 0 0 0 0 0 0 0 0 0 0 0 0 0 0 0 0 0 0 0 0 0 0 0 0 0 0 0 0 0
0 0 0 0 0 0 0 0 0 0 0 0 0 0 0 0 0 0 0 0 0 0 0 0 0 0 0 0 0 0 0 0 0 0 0 0 0 0 0 0 0 0 0
0 0 0 0 0 0 0 0 0 0 0 0 0 0 0 0 0 0 0 0 0 0 0 0 0 0 0 0 0 0 0 0 0 0 0 0 0 0 0 0 0 0 0
0 0 0 0 0 0 0 0 0 0 0 0 0 0 0 0 0 0 0 0 0 0 0 0 0 0 0 0 0 0 0 0 0 0 0 0 0 0 0 0 0 0 0
0 0 0 0 0 0 0 0 0 0 0 0 0 0 0 0 0 0 0 0 0 0 0 0 0 0 0 0 0 0 0 0 0 0 0 0 0 0 0 0 0 0 0
0 0 0 0 0 0 0 0 0 0 0 0 0 0 0 0 0 0 0 0 0 0 0 0 0 0 0 0 0 0 0 0 0 0 0 0 0 0 0 0 0 0 0
0 0 0 0 0 0 0 0 0 0 0 0 0 0 0 0 0 0 0 0 0 0 0 0 0 0 0 0 0 0 0 0 0 0 0 0 0 0 0 0 0 0 0
0 0 0 0 0 0 0 0 0 0 0 0 0 0 0 0 0 0 0 0 0 0 0 0 0 0 0 0 0 0 0 0 0 0 0 0 0 0 0 0 0 0 0
0 0 0 0 0 0 0 0 0 0 0 0 0 0 0 0 0 0 0 0 0 0 0 0 0 0 0 0 0 0 0 0 0 0 0 0 0 0 0 0 0 0 0
0 0 0 0 0 0 0 0 0 0 0 0 0 0 0 0 0 0 0 0 0 0 0 0 0 0 0 0 0 0 0 0 0 0 0 0 0 0 0 0 0 0 0
0 0 0 0 0 0 0 0 0 0 0 0 0 0 0 0 0 0 0 0 0 0 0 0 0 0 0 0 0 0 0 0 0 0 0 0 0 0 0 0 0 0 0
0 0 0 0 0 0 0 0 0 0 0 0 0 0 0 0 0 0 0 0 0 0 0 0 0 0 0 0 0 0 0 0 0 0 0 0 0 0 0 0 0 0 0
0 0 0 0 0 0 0 0 0 0 0 0 0 0 0 0 0 0 0 0 0 0 0 0 0 0 0 0 0 0 0 0 0 0 0 0 0 0 0 0 0 0 0
0 0 0 0 0 0 0 0 0 0 0 0 0 0 0 0 0 0 0 0 0 0 0 0 0 0 0 0 0 0 0 0 0 0 0 0 0 0 0 0 0 0 0
0 0 0 0 0 0 0 0 0 0 0 0 0 0 0 0 0 0 0 0 0 0 0 0 0 0 0 0 0 0 0 0 0 0 0 0 0 0 0 0 0 0 0
0 0 0 0 0 0 0 0 0 0 0 0 0 0 0 0 0 0 0 0 0 0 0 0 0 0 0 0 0 0 0 0 0 0 0 0 0 0 0 0 0 0 0
0 0 0 0 0 0 0 0 0 0 0 0 0 0 0 0 0 0 0 0 0 0 0 0 0 0 0 0 0 0 0 0 0 0 0 0 0 0 0 0 0 0 0
0 0 0 0 0 0 0 0 0 0 0 0 0 0 0 0 0 0 0 0 0 0 0 0 0 0 0 0 0 0 0 0 0 0 0 0 0 0 0 0 0 0 0
0 0 0 0 0 0 0 0 0 0 0 0 0 0 0 0 0 0 0 0 0 0 0 0 0 0 0 0 0 0 0 0 0 0 0 0 0 0 0 0 0 0 0
0 0 0 0 0 0 0 0 0 0 0 0 0 0 0 0 0 0 0 0 0 0 0 0 0 0 0 0 0 0 0 0 0 0 0 0 0 0 0 0 0 0 0
Wind_Speed
3 2 2 1 1 1 0 1 1 1 1 3 3 3 3 2 2 2 2 4 3 2 4 4 4 5 4 4 4 4 5 5 4 4 4 3 2 2 1 1 2 3 4
4 3 3 2 2 2 2 1 0 1 2 3 3 3 3 2 2 3 3 4 5 5 4 4 4 4 4 4 4 4 4 4 3 3 3 3 2 1 0 1 2 3 4
4 4 3 3 3 3 2 1 1 2 2 3 3 3 2 2 2 3 3 3 3 5 5 5 4 4 4 4 4 4 3 3 3 3 3 2 1 1 0 1 1 3 4
6 4 4 4 3 3 3 2 2 2 2 3 3 2 2 2 2 2 3 3 3 3 4 6 5 5 5 4 4 4 3 3 3 2 2 2 1 1 1 1 1 2 3
7 5 4 4 3 2 2 3 2 2 3 3 3 2 1 1 1 2 2 3 3 3 3 5 7 7 6 5 4 4 4 3 3 2 2 1 1 0 1 1 1 2 3
7 6 4 4 3 2 3 3 3 2 2 3 3 2 1 0 0 0 1 1 2 3 3 3 4 5 7 6 5 4 4 3 3 3 2 1 1 0 1 1 1 1 2
7 6 5 5 4 4 4 4 3 3 2 3 3 2 2 1 1 1 1 1 0 1 1 2 2 2 3 6 6 5 4 4 4 3 3 2 1 1 1 1 1 1 1
6 6 6 5 5 4 4 5 4 3 2 3 3 3 1 2 2 2 2 2 2 1 1 1 0 1 1 2 3 5 5 4 4 4 4 4 2 2 2 1 1 1 2
5 5 6 5 5 6 6 6 6 6 4 3 2 4 4 4 2 1 2 3 3 2 2 2 2 1 1 0 1 3 4 5 4 4 4 4 4 2 2 2 2 2 2
5 5 5 6 5 5 5 6 6 5 5 4 2 1 1 3 3 2 1 2 3 4 4 3 3 3 3 2 2 2 2 4 4 5 5 5 5 3 2 2 2 2 2
4 5 5 5 5 5 6 6 6 6 5 5 4 3 2 1 1 3 2 2 2 3 4 4 4 4 4 3 2 3 1 2 3 4 5 6 6 5 4 3 3 3 2
2 3 4 4 5 4 5 6 7 8 7 6 5 4 4 3 3 3 3 2 3 3 3 3 4 4 4 4 4 6 4 2 1 3 4 5 6 6 5 4 4 5 5
1 2 3 3 3 4 4 5 5 6 7 7 7 6 5 4 3 4 3 3 2 2 2 3 4 4 5 4 4 7 6 4 2 1 2 3 4 5 6 6 6 6 6
2 2 2 2 2 3 3 4 4 5 5 7 7 7 5 5 4 4 4 4 3 2 2 4 2 5 5 5 6 8 4 6 5 3 1 2 3 4 6 6 7 8 8
1 2 2 2 2 2 2 3 3 4 5 6 6 6 5 4 5 4 4 4 5 4 4 4 3 4 5 4 7 5 5 7 7 5 3 1 2 3 4 5 6 7 7
2 2 2 2 2 2 2 2 2 2 4 4 4 5 5 4 4 5 4 4 4 5 4 3 4 3 4 5 8 6 6 9 9 7 5 4 2 2 2 3 4 4 5
2 2 2 2 2 2 2 2 2 2 3 2 3 4 5 5 5 5 4 4 4 4 4 2 1 2 4 4 4 5 4 5 4 8 7 6 5 4 3 2 1 2 2
2 2 2 2 2 2 2 2 2 2 2 2 2 3 3 3 5 5 5 6 5 5 4 4 2 2 3 3 4 4 4 5 4 8 9 8 7 6 5 4 3 2 1
2 2 3 3 3 3 3 3 2 2 2 1 2 2 2 3 4 3 5 5 5 5 4 4 3 2 1 2 2 2 3 3 4 6 9 10 10 9 8 7 6 5 3
2 2 3 3 3 3 3 3 3 2 2 1 1 1 2 3 3 3 3 4 4 4 4 4 3 2 2 2 2 2 2 3 4 4 5 6 9 11 10 9 9 8 6
2 2 2 3 3 3 4 5 4 4 3 2 1 1 1 3 4 3 2 3 3 3 3 3 3 2 3 2 3 3 3 2 3 4 3 4 5 5 6 9 11 10 9
2 2 2 3 3 4 6 9 6 4 4 3 2 2 2 2 2 4 4 4 5 4 3 3 2 3 3 3 3 3 2 2 3 3 4 4 4 6 6 6 10 11 11
3 3 3 3 4 5 7 7 9 5 4 4 4 3 2 2 3 2 3 4 4 6 6 3 3 3 3 4 4 4 4 4 4 3 4 3 3 5 6 7 14 15 14
3 3 3 3 3 4 6 6 8 6 4 4 4 4 4 3 3 3 3 2 3 4 5 4 4 4 4 4 4 5 5 4 2 2 4 3 3 4 3 6 13 16 15
4 3 3 3 3 4 5 4 5 4 3 3 3 3 4 3 4 5 4 3 3 3 5 7 8 7 7 7 6 3 3 3 3 3 5 4 2 2 2 3 7 14 14
4 4 4 4 4 4 6 4 4 3 3 2 2 2 4 4 4 4 4 4 4 3 1 1 3 4 4 5 7 6 5 4 3 3 4 4 2 2 3 2 1 3 7
Wind_Direction
179 184 188 189 186 154 162 318 337 342 127 135 128 119 105 84 63 39 6 38 62 98 125 125 132 134 138 144 150 145 143 146 150 151 144 139 133 117 88 29 3 358 357
182 188 197 202 203 184 187 216 256 128 133 133 129 122 111 93 69 54 35 34 52 65 92 111 113 119 127 133 140 143 147 149 151 156 157 154 150 139 129 352 347 351 351
191 192 198 212 209 174 170 161 109 98 113 119 123 123 114 104 88 63 48 37 36 50 67 89 101 105 112 116 121 121 126 139 142 151 158 158 163 168 221 285 329 346 347
196 192 203 221 205 165 159 155 136 116 127 138 139 138 127 122 106 83 59 47 40 37 48 73 80 87 95 102 108 111 111 113 116 125 133 141 173 209 254 286 316 340 345
199 195 209 221 196 172 170 171 152 148 157 158 149 129 133 143 143 113 79 56 49 48 38 51 63 65 74 82 90 99 101 102 98 98 110 117 116 224 270 278 301 333 344
199 197 206 216 192 184 186 175 160 144 142 148 133 96 57 254 205 145 122 74 51 47 48 44 40 41 52 56 63 79 85 89 85 74 68 74 90 10 302 272 280 317 342
194 196 204 202 192 197 199 175 151 145 128 129 104 74 22 2 246 243 204 153 130 42 55 51 42 35 25 35 37 56 60 68 65 61 48 44 46 20 356 339 323 316 343
190 197 197 195 193 192 189 179 157 149 149 157 135 123 86 332 292 224 212 213 208 201 222 214 95 49 32 16 11 40 44 47 49 50 49 45 40 29 26 16 3 6 16
193 197 197 194 192 188 193 188 176 165 164 176 173 153 160 209 245 272 227 218 206 208 228 233 223 222 231 315 346 12 44 40 39 41 41 35 32 34 36 26 21 19 24
194 200 199 196 193 191 193 193 183 174 161 170 180 172 155 159 164 214 278 231 213 217 220 224 221 220 221 230 263 283 45 45 35 31 32 28 26 32 36 29 25 28 22
198 201 201 197 197 197 198 192 184 183 178 174 171 155 137 137 158 154 209 239 238 229 216 216 217 216 215 217 236 255 235 74 51 37 28 24 24 31 37 40 31 22 16
207 208 201 200 199 197 199 197 192 190 192 185 180 170 166 175 188 178 176 198 224 242 222 213 213 212 206 207 223 233 223 182 101 61 40 31 29 30 34 38 37 35 39
205 216 199 200 200 201 197 189 191 197 194 194 197 195 189 194 175 173 169 169 197 244 248 233 219 206 205 198 216 226 223 208 184 130 65 46 42 40 37 43 47 46 46
199 194 185 189 195 192 188 184 192 197 198 204 208 203 201 201 189 184 175 158 165 223 254 253 227 209 204 194 206 212 218 214 204 196 161 76 58 53 55 56 53 51 49
164 143 137 145 158 169 178 175 190 197 194 204 209 209 209 204 197 196 185 173 166 190 232 240 231 219 202 193 197 196 202 218 213 211 207 180 108 78 72 70 66 59 52
115 115 109 110 107 117 142 158 173 193 196 202 202 205 208 203 202 198 196 192 182 180 206 227 223 211 193 201 201 194 202 217 221 217 217 210 186 145 111 93 81 67 56
132 131 132 127 120 115 123 141 161 172 189 200 204 206 211 200 203 204 197 193 192 180 202 214 202 184 180 189 187 186 195 207 221 223 222 223 219 212 201 178 132 91 64
154 157 152 150 150 147 145 149 164 175 184 197 206 206 212 205 207 205 201 202 198 190 191 198 189 182 188 186 177 186 195 208 213 227 227 228 228 227 225 220 209 197 166
172 173 170 177 182 180 173 170 168 169 177 190 202 206 210 204 211 207 203 203 200 197 190 183 178 168 153 138 145 185 195 207 214 225 229 229 229 229 229 227 221 216 213
219 208 203 203 201 195 191 186 179 181 184 189 202 211 210 212 219 212 208 204 195 193 186 181 172 163 150 144 151 175 202 209 222 218 223 221 225 231 231 230 228 224 219
270 243 226 220 209 202 204 197 192 192 193 200 221 231 229 217 216 203 192 192 188 185 178 177 173 166 168 169 193 185 205 197 227 213 213 219 219 225 228 232 233 230 222
316 288 256 238 227 227 217 204 193 192 193 197 209 231 252 248 235 219 213 199 192 188 188 180 181 194 196 193 179 183 179 170 247 205 197 230 202 229 229 224 229 228 225
340 319 293 262 249 248 242 221 203 188 194 201 204 210 229 230 222 220 238 231 219 215 203 182 189 206 203 199 187 192 197 204 221 185 172 237 202 236 232 228 227 229 227
342 324 312 297 277 272 260 235 209 191 195 204 204 205 216 235 223 205 207 222 233 234 225 216 213 219 215 205 198 199 202 212 224 182 171 228 213 231 239 226 230 227 224
347 337 325 323 309 305 306 266 193 170 191 209 208 208 215 226 238 211 196 224 252 261 251 238 235 239 236 226 205 187 191 201 232 221 188 215 230 229 248 243 234 228 223
349 352 3 2 354 337 334 316 183 161 177 194 205 218 224 227 237 215 197 208 241 261 251 261 253 261 253 245 221 206 205 208 216 234 189 194 210 193 272 258 257 230 225